{"data":{"norad_id":52588,"intl_designator":"2022-051BE","name":"STARLINK-3917","alt_names":[],"object_type":"PAYLOAD","status":"ACTIVE","operator":null,"country":"US","launch_date":"2022-05-13","launch_site_code":"AFWTR","launch_vehicle":null,"mission":null,"orbit_class":"UNKNOWN","rcs_meters":null,"size_class":null,"mass_kg":null,"dimensions":null,"purposes":["comms"],"wikipedia_slug":null,"has_3d_model":false,"image_url":null,"decayed_at":null,"tle_current":{"epoch":"2026-05-24T23:08:41.504928Z","epoch_age_seconds":78943,"freshness":"FRESH","line1":"1 52588U 22051BE  26144.96436927 -.00000020  00000+0  16827-4 0  9991","line2":"2 52588  53.2137 136.7121 0000899  71.0820 289.0269 15.08838138223105","mean_motion":15.08838138,"eccentricity":8.99e-5,"inclination_deg":53.2137,"raan_deg":136.7121,"arg_perigee_deg":71.082,"mean_anomaly_deg":289.0269,"bstar":1.6827e-5,"rev_number":22310,"period_min":95.437672453637,"perigee_km":539.12716240043,"apogee_km":540.37099831768,"semimajor_km":6917.8860803591,"source":"CELESTRAK","updated_at":"2026-05-25T13:38:17.196062Z"}}}